This is the latest recevied weather packets stored in our database for station/object KF6ILA. If no packets are shown the sender has not sent any weather packets the latest 1 day(s).
| Time | Temp. | Humidity | Pressure | Rain* | Wind** | Luminosity | Snow |
|---|---|---|---|---|---|---|---|
| 1777979650 | 6.11° C | 100% | 1009.4 hPa | 1.02 mm | 7.15 m/s, 278° | 0 W/m² | - |
| 1777979353 | 6.11° C | 100% | 1009.4 hPa | 1.02 mm | 7.15 m/s, 272° | 0 W/m² | - |
| 1777979056 | 6.11° C | 100% | 1009.3 hPa | 1.27 mm | 8.49 m/s, 275° | 0 W/m² | - |
| 1777978758 | 5.56° C | 100% | 1009.4 hPa | 1.52 mm | 6.71 m/s, 271° | 0 W/m² | - |
| 1777978462 | 5.56° C | 100% | 1009.4 hPa | 1.52 mm | 6.26 m/s, 275° | 0 W/m² | - |
| 1777978165 | 5.56° C | 100% | 1009.5 hPa | 1.78 mm | 4.02 m/s, 274° | 0 W/m² | - |
| 1777977867 | 5.56° C | 100% | 1009.6 hPa | 1.78 mm | 6.26 m/s, 274° | 0 W/m² | - |
| 1777977571 | 5.56° C | 100% | 1009.4 hPa | 1.78 mm | 4.92 m/s, 277° | 0 W/m² | - |
| 1777977274 | 5.56° C | 100% | 1009.4 hPa | 1.52 mm | 4.47 m/s, 269° | 0 W/m² | - |
| 1777976977 | 5.56° C | 100% | 1009.4 hPa | 1.78 mm | 5.36 m/s, 277° | 0 W/m² | - |
| 1777976680 | 5.56° C | 100% | 1009.2 hPa | 2.03 mm | 4.92 m/s, 282° | 0 W/m² | - |
| 1777976383 | 5.56° C | 100% | 1009.4 hPa | 2.03 mm | 5.36 m/s, 282° | 0 W/m² | - |
| 1777976086 | 5.56° C | 100% | 1009.3 hPa | 2.03 mm | 5.36 m/s, 278° | 0 W/m² | - |
| 1777975789 | 5.56° C | 99% | 1009.4 hPa | 2.29 mm | 4.47 m/s, 282° | 0 W/m² | - |
| 1777975195 | 5.56° C | 100% | 1009.5 hPa | 2.54 mm | 4.47 m/s, 281° | 0 W/m² | - |
| 1777974897 | 5.56° C | 100% | 1009.6 hPa | 3.05 mm | 4.92 m/s, 270° | 0 W/m² | - |
| 1777974601 | 5.56° C | 100% | 1009.5 hPa | 3.05 mm | 6.71 m/s, 258° | 0 W/m² | - |
| 1777974304 | 5.56° C | 100% | 1009.6 hPa | 3.3 mm | 6.26 m/s, 266° | 0 W/m² | - |
| 1777974007 | 5.56° C | 100% | 1009.6 hPa | 3.3 mm | 5.36 m/s, 263° | 0 W/m² | - |
| 1777973711 | 5.56° C | 100% | 1009.6 hPa | 3.56 mm | 4.02 m/s, 255° | 0 W/m² | - |
| 1777973413 | 5.56° C | 100% | 1009.8 hPa | 3.3 mm | 3.58 m/s, 261° | 0 W/m² | - |
| 1777973116 | 5.56° C | 100% | 1009.7 hPa | 3.05 mm | 3.13 m/s, 254° | 0 W/m² | - |
| 1777972819 | 5.56° C | 100% | 1009.9 hPa | 2.79 mm | 5.81 m/s, 252° | 0 W/m² | - |
| 1777972522 | 5° C | 99% | 1009.8 hPa | 2.54 mm | 4.92 m/s, 257° | 0 W/m² | - |
| 1777972225 | 5° C | 99% | 1009.9 hPa | 2.54 mm | 4.02 m/s, 253° | 0 W/m² | - |
* Rain latest hour (hover to see other rain measurements)
** Current wind speed in m/s (hover to see current wind gust speed)